Home > Weather > Oldenburg > Past weeks

Flag for Germany Weather for the Past 2 Weeks in Oldenburg, Lower Saxony, Germany

Now
50 °F

Broken clouds.


Feels Like: 45 °F
Forecast: 42 / 49 °F
Wind: 15 mph from Southwest

Location: Bremen Airport

Current Time: Feb 7, 2016 at 2:19:24 PM

Latest Report: Feb 7, 2016 at 1:50 PM


Visibility: N/A

Pressure: 29.47 "Hg

Humidity: 71%

Dew point: 41 °F

Location of OldenburgLocation

Historic Weather in Oldenburg — Graph

°F

Oldenburg Temperature Yesterday

Maximum temperature yesterday: 50 °F (at 10:50 AM)
Minimum temperature yesterday: 43 °F (at 9:20 PM)
Average temperature yesterday: 48 °F

High & Low Weather Summary for the Past Weeks

 TemperatureHumidityPressure
High54 °F (Jan 25, 2:50 PM)100% (Jan 23, 6:20 PM)30.48 "Hg (Jan 23, 6:20 PM)
Low32 °F (Feb 4, 10:50 PM)61% (Feb 3, 1:20 PM)29.42 "Hg (Feb 7, 9:50 AM)
Average45 °F85%29.96 "Hg
* Reported Jan 23 1:20 PM — Feb 7 1:20 PM, Oldenburg, Weather by CustomWeather, © 2016

Note: Actual official high and low records may vary slightly from our data, if they occured in-between our weather recording intervals... More about our weather records

Advertising

Oldenburg Weather History for the Previous 24 Hours

 ConditionsComfort  
Time TempWeatherWind HumidityBarometerVisibility
1:20 PM
Sun, Feb 7
52 °FScattered clouds.15 mph67%29.45 "HgN/A
12:50 PM52 °FScattered clouds.20 mph67%29.45 "HgN/A
12:20 PM54 °FPartly sunny.17 mph67%29.45 "HgN/A
11:50 AM52 °FPartly sunny.20 mph72%29.45 "HgN/A
11:20 AM52 °FPartly sunny.16 mph67%29.45 "HgN/A
10:50 AM52 °FPartly sunny.15 mph67%29.42 "HgN/A
10:20 AM52 °FPartly sunny.14 mph67%29.42 "HgN/A
9:50 AM50 °FPartly sunny.13 mph71%29.42 "HgN/A
9:20 AM52 °FPartly sunny.16 mph67%29.45 "HgN/A
8:50 AM50 °FLight rain. Partly sunny.15 mph71%29.45 "HgN/A
8:20 AM48 °FSunny.14 mph71%29.45 "Hg10 mi
7:50 AM46 °FClear.10 mph76%29.45 "Hg10 mi
7:20 AM46 °FClear.10 mph76%29.45 "Hg10 mi
6:50 AM48 °FClear.12 mph71%29.45 "Hg10 mi
6:20 AM46 °FClear.13 mph76%29.45 "Hg10 mi
5:50 AM46 °FClear.14 mph76%29.45 "Hg10 mi
5:20 AM46 °FClear.13 mph76%29.47 "Hg10 mi
4:20 AM45 °FClear.10 mph81%29.47 "Hg10 mi
3:50 AM45 °FClear.8 mph76%29.50 "Hg10 mi
3:20 AM45 °FClear.8 mph81%29.50 "Hg10 mi
2:20 AM45 °FClear.10 mph81%29.53 "Hg10 mi
1:50 AM45 °FClear.12 mph81%29.53 "Hg10 mi
1:20 AM45 °FClear.12 mph81%29.56 "Hg10 mi
12:50 AM45 °FClear.12 mph81%29.56 "Hg10 mi
12:20 AM45 °FClear.12 mph81%29.59 "Hg10 mi
11:50 PM
Sat, Feb 6
45 °FClear.12 mph81%29.59 "Hg10 mi
11:20 PM45 °FClear.10 mph81%29.59 "Hg10 mi
10:50 PM45 °FClear.10 mph81%29.62 "Hg10 mi
9:50 PM43 °FClear.7 mph87%29.62 "Hg10 mi
9:20 PM43 °FClear.5 mph87%29.62 "Hg10 mi
8:50 PM45 °FClear.7 mph87%29.65 "Hg10 mi
8:20 PM45 °FClear.8 mph87%29.65 "Hg10 mi
7:50 PM45 °FClear.9 mph87%29.68 "Hg10 mi
7:20 PM45 °FClear.8 mph87%29.68 "Hg10 mi
6:50 PM46 °FClear.6 mph82%29.68 "Hg10 mi
6:20 PM45 °FClear.5 mph87%29.71 "Hg10 mi
5:50 PM46 °FPassing clouds.6 mph82%29.71 "HgN/A
5:20 PM48 °FPassing clouds.7 mph76%29.71 "HgN/A
4:50 PM50 °FPartly sunny.13 mph71%29.74 "HgN/A
4:20 PM50 °FPartly sunny.10 mph76%29.74 "HgN/A
3:50 PM50 °FPartly sunny.10 mph76%29.74 "HgN/A
3:20 PM50 °FPartly sunny.13 mph76%29.74 "HgN/A
2:50 PM50 °FPartly sunny.10 mph76%29.77 "HgN/A
2:20 PM50 °FPartly sunny.16 mph71%29.77 "HgN/A
Weather by CustomWeather, © 2016

See weather overviewHow to use our weather pages